EW3839 Weather Reports


Display with metric or nautical units.
time (UTC)temp
F
wind
direction
speed
MPH
gust
MPH
rain 1hr
in
rain 24hr
in
rain mn
in
humidity
%
barometer
mb
20210731190054 76 36 0.0 5.0 0.00 0.00 0.00 46 1013.7
20210731184553 76 324 0.0 7.0 0.00 0.00 0.00 47 1013.8
20210731183111 75 221 0.0 6.0 0.00 0.00 0.00 44 1013.9
20210731181524 75 206 0.0 2.0 0.00 0.00 0.00 49 1013.9
20210731180341 75 300 1.0 9.0 0.00 0.00 0.00 46 1013.9
20210731174616 75 294 0.0 5.0 0.00 0.00 0.00 48 1014.0
20210731173050 74 209 0.0 7.0 0.00 0.00 0.00 53 1014.2
20210731171557 73 212 0.0 7.0 0.00 0.00 0.00 48 1014.3
20210731170018 73 253 1.0 7.0 0.00 0.00 0.00 48 1014.4
20210731164516 74 20 1.0 9.0 0.00 0.00 0.00 52 1014.6
20210731163314 73 151 0.0 6.0 0.00 0.00 0.00 57 1014.7
20210731161701 73 234 0.0 6.0 0.00 0.00 0.00 50 1014.8
20210731160113 72 294 3.0 7.0 0.00 0.00 0.00 49 1015.0
20210731154708 72 207 1.0 7.0 0.00 0.00 0.00 50 1015.0
20210731153157 71 213 1.0 7.0 0.00 0.00 0.00 52 1015.0
20210731151629 70 223 0.0 8.0 0.00 0.00 0.00 52 1014.9
20210731150138 70 312 1.0 8.0 0.00 0.00 0.00 53 1015.0
20210731144651 70 198 2.0 7.0 0.00 0.00 0.00 54 1015.1
20210731143054 69 291 1.0 7.0 0.00 0.00 0.00 59 1015.1
20210731141615 69 209 2.0 10.0 0.00 0.00 0.00 58 1015.2
20210731140022 68 360 0.0 7.0 0.00 0.00 0.00 58 1015.2
20210731134521 67 84 2.0 8.0 0.00 0.00 0.00 62 1015.1
20210731133005 67 76 0.0 6.0 0.00 0.00 0.00 62 1015.2
20210731131504 66 339 2.0 8.0 0.00 0.00 0.00 63 1015.2
20210731130001 66 309 0.0 4.0 0.00 0.00 0.00 63 1015.2
20210731124734 65 321 0.0 7.0 0.00 0.00 0.00 66 1015.1
20210731123143 65 12 0.0 2.0 0.00 0.00 0.00 67 1015.2
20210731121638 63 282 0.0 7.0 0.00 0.00 0.00 70 1015.1
20210731120042 61 5 0.0 3.0 0.00 0.00 0.00 76 1015.2
20210731114534 59 242 0.0 6.0 0.00 0.00 0.00 84 1015.2
20210731113051 56 187 0.0 0.0 0.00 0.00 0.00 89 1015.2
20210731111519 54 163 0.0 0.0 0.00 0.00 0.00 89 1015.1
20210731110126 53 18 0.0 0.0 0.00 0.00 0.00 89 1014.9
20210731104818 53 18 0.0 0.0 0.00 0.00 0.00 88 1014.9
20210731103121 52 18 0.0 0.0 0.00 0.00 0.00 87 1014.8
20210731101547 52 18 0.0 0.0 0.00 0.00 0.00 86 1014.9
20210731100015 53 18 0.0 0.0 0.00 0.00 0.00 85 1014.9
20210731094516 53 18 0.0 0.0 0.00 0.00 0.00 85 1014.6
20210731093206 53 18 0.0 0.0 0.00 0.00 0.00 84 1014.7
20210731091745 54 18 0.0 0.0 1.94 0.00 0.00 83 1014.4
20210731090052 54 19 0.0 0.0 0.00 0.00 0.00 82 1014.1
20210731084545 55 19 0.0 0.0 0.00 0.00 0.00 81 1014.0
20210731083046 55 19 0.0 0.0 0.00 0.00 0.00 80 1014.0
20210731081604 56 19 0.0 0.0 0.00 0.00 0.00 80 1013.9
20210731080037 56 19 0.0 0.0 0.00 0.00 0.00 81 1013.8
20210731074557 56 78 0.0 0.0 0.00 0.00 0.00 80 1013.9
20210731073113 56 127 0.0 0.0 0.00 0.00 0.00 79 1014.2
20210731071546 56 78 0.0 0.0 0.00 0.00 0.00 78 1014.1
20210731070210 57 78 0.0 0.0 0.00 0.00 0.00 76 1014.0
20210731064642 58 78 0.0 0.0 0.00 0.00 0.00 74 1013.9
20210731063135 58 78 0.0 0.0 0.00 0.00 0.00 73 1014.0
20210731061553 59 360 0.0 0.0 0.00 0.00 0.00 72 1014.1
20210731060039 60 346 0.0 0.0 0.00 0.00 0.00 70 1014.1
20210731054518 60 346 0.0 0.0 0.00 0.00 0.00 70 1014.3
20210731053153 61 346 0.0 0.0 0.00 0.00 0.00 69 1014.1
20210731051723 61 318 0.0 0.0 0.00 0.00 0.00 68 1014.1
20210731050056 62 18 0.0 0.0 0.00 0.00 0.00 67 1014.1
20210731044657 62 46 0.0 5.0 0.00 0.00 0.00 67 1014.1
20210731043010 63 355 0.0 4.0 0.00 0.00 0.00 66 1014.2
20210731041509 63 198 0.0 6.0 0.00 0.00 0.00 65 1014.0
20210731040105 64 288 0.0 8.0 0.00 0.00 0.00 65 1013.9
20210731034615 64 306 0.0 10.0 0.00 0.00 0.00 64 1013.7
20210731033113 64 315 1.0 8.0 0.00 0.00 0.00 63 1013.4
20210731031600 65 337 0.0 9.0 0.00 0.00 0.00 63 1013.7
20210731030124 65 348 0.0 11.0 0.00 0.00 0.00 62 1013.6
20210731024521 66 224 0.0 6.0 0.00 0.00 0.00 61 1013.4
20210731023209 66 169 0.0 5.0 0.00 0.00 0.00 60 1013.4
20210731021742 67 320 1.0 8.0 0.00 0.00 0.00 59 1013.2
20210731014619 68 22 0.0 8.0 0.00 0.00 0.00 58 1012.8
20210731013032 68 323 0.0 8.0 0.00 0.00 0.00 57 1012.4
20210731011527 68 247 0.0 5.0 0.00 0.00 0.00 56 1011.9
20210731010352 69 284 0.0 2.0 0.00 0.00 0.00 55 1011.7
20210731004708 70 325 0.0 4.0 0.00 0.00 0.00 53 1011.5
20210731003132 70 190 0.0 7.0 0.00 0.00 0.00 52 1011.3
20210731001727 71 294 0.0 10.0 0.00 0.00 0.00 50 1010.9
20210731000145 71 321 2.0 8.0 0.00 0.00 0.00 48 1010.8
20210730234552 72 264 1.0 11.0 0.00 0.00 0.00 46 1010.5
20210730233106 73 69 2.0 9.0 0.00 0.00 0.00 45 1010.2
20210730231547 74 36 0.0 9.0 0.00 0.00 0.00 48 1010.0
20210730230053 75 5 0.0 10.0 0.00 0.00 0.00 50 1009.7
20210730224533 75 355 0.0 8.0 0.00 0.00 0.00 50 1009.6
20210730223043 76 40 0.0 10.0 0.00 0.00 0.00 46 1009.5
20210730221800 77 235 0.0 4.0 0.00 0.00 0.00 45 1009.1
20210730220211 78 34 1.0 9.0 0.00 0.00 0.00 43 1008.9
20210730214552 78 252 4.0 13.0 0.00 0.00 0.00 43 1008.9
20210730213042 78 355 0.0 19.0 0.00 0.00 0.00 43 1008.8
20210730211600 78 333 2.0 12.0 0.00 0.00 0.00 43 1008.5
20210730210036 78 48 3.0 16.0 0.00 0.00 0.00 42 1008.3
20210730204712 79 333 4.0 19.0 0.00 0.00 0.00 40 1008.1
20210730203252 79 325 2.0 20.0 0.00 0.00 0.00 44 1008.1
20210730201620 80 344 4.0 16.0 0.00 0.00 0.00 45 1008.1
20210730200107 81 329 7.0 21.0 0.00 0.00 0.00 42 1008.0
20210730194532 82 32 2.0 12.0 0.00 0.00 0.00 45 1007.6
20210730193027 81 42 4.0 15.0 0.00 0.00 0.00 47 1007.5
20210730191717 81 360 2.0 15.0 0.00 0.00 0.00 47 1007.4